Temp
14 13 13 13 13 13 13 13 13 13 13 14 16 17 17 17 17 17 17 16 16 17 16 16 16 16 16 16 16 16 17 17 17
13 13 13 13 13 13 13 13 13 13 14 15 16 17 17 17 16 16 17 16 17 16 16 16 16 16 16 16 15 16 16 16 17
13 13 13 13 13 13 13 13 14 15 15 16 16 16 17 17 16 16 16 16 16 16 16 15 15 15 15 15 15 15 15 15 15
14 15 15 15 15 15 15 15 15 15 16 16 16 16 17 16 16 16 16 15 16 16 15 15 15 15 15 15 15 15 15 15 15
15 15 15 14 15 15 15 15 15 15 15 16 16 16 16 16 16 16 15 15 16 15 15 15 15 15 15 15 15 15 15 15 15
15 14 14 14 14 15 15 14 15 15 15 15 16 16 16 16 16 16 15 15 15 15 14 14 14 14 14 15 15 15 15 15 15
15 14 14 14 14 14 14 14 15 15 15 15 15 16 16 15 15 15 15 14 15 14 14 14 14 14 14 14 14 15 15 14 14
14 14 14 14 14 14 14 14 14 14 14 14 15 15 15 15 15 15 14 13 14 14 14 14 14 14 14 14 14 14 14 14 14
14 14 14 14 13 14 14 14 14 14 14 14 14 15 15 14 14 14 14 13 13 13 13 13 13 13 14 14 13 13 13 13 13
14 13 13 13 13 13 13 13 14 14 14 14 14 14 14 14 14 13 13 13 13 12 12 12 12 13 13 13 13 13 12 13 13
13 13 13 13 13 13 13 13 13 13 14 14 14 14 14 14 14 14 13 13 12 12 12 12 12 12 12 13 13 12 12 12 12
13 13 13 13 13 13 13 13 13 13 14 13 13 14 14 14 14 13 13 12 12 12 11 11 11 11 11 12 12 12 11 11 11
13 13 13 13 13 13 13 13 13 13 13 13 13 13 13 13 13 13 12 12 12 12 11 11 11 10 10 11 11 11 10 10 11
13 13 13 13 13 13 13 12 12 12 13 13 13 13 13 13 12 12 12 12 12 11 11 10 10 10 10 10 10 10 10 10 10
12 12 13 12 13 13 13 12 12 12 13 13 13 13 13 13 12 12 12 12 12 11 11 10 10 9 9 9 9 9 9 9 10
12 13 12 12 12 12 12 12 12 12 12 13 13 13 12 12 12 12 12 12 12 11 11 11 10 10 9 9 9 9 9 9 9
12 12 12 12 12 12 12 12 12 11 11 11 10 8 11 12 13 12 12 12 12 12 11 11 10 10 10 9 9 9 9 8 9
12 12 12 12 11 11 11 11 11 11 11 11 10 8 8 8 12 12 12 11 12 11 11 11 11 10 10 9 9 9 9 8 8
11 11 11 11 11 11 11 10 10 10 10 11 11 10 10 7 7 11 12 11 11 11 11 11 11 10 10 9 9 9 9 8 8
11 11 11 11 10 10 10 10 10 9 9 9 9 10 10 9 8 6 8 11 11 11 11 11 11 10 10 10 9 9 8 7 7
Height
836 836 835 835 834 833 832 831 830 829 828 827 826 826 826 826 825 825 825 824 824 825 825 825 824 824 823 821 820 819 817 818 817
837 836 835 835 834 834 833 832 831 830 829 828 827 827 828 828 826 826 826 826 826 825 825 825 824 823 822 821 820 819 818 817 816
838 837 836 836 835 834 833 833 832 831 830 829 829 829 829 828 827 827 827 827 827 826 826 825 824 823 822 821 820 819 818 817 816
839 839 838 837 836 835 835 834 833 832 831 831 830 830 829 828 828 828 827 827 827 827 826 825 824 823 822 821 820 819 818 817 816
841 840 839 839 838 838 837 836 835 834 833 832 831 830 830 829 829 829 828 828 827 827 826 825 823 822 821 821 820 819 818 817 816
842 841 841 840 839 839 838 837 836 834 833 832 831 831 830 830 829 829 829 829 828 827 826 825 824 822 821 820 820 819 818 816 816
843 843 842 841 840 839 838 837 836 835 834 832 832 831 831 830 830 830 829 829 828 828 827 826 824 823 821 819 818 817 817 816 814
844 843 842 841 840 839 839 837 837 835 834 833 832 832 831 830 831 830 830 829 829 829 828 827 825 824 823 820 819 817 817 816 815
844 843 843 842 841 840 839 838 837 836 835 834 833 832 831 831 831 831 831 830 830 829 828 828 826 825 823 821 820 819 817 817 816
845 844 843 842 841 840 839 838 837 836 835 834 833 832 832 832 833 832 832 832 831 830 829 828 827 825 824 822 821 819 818 817 816
845 844 843 842 841 841 840 839 837 837 836 835 833 832 832 832 832 833 832 832 831 831 830 829 827 825 824 822 821 820 818 817 816
845 845 844 843 842 841 840 839 838 837 836 835 834 833 833 833 833 833 832 832 831 830 829 828 826 825 824 822 821 820 818 816 815
846 845 844 843 843 842 841 840 839 837 836 836 835 835 834 834 834 833 833 832 831 830 828 827 826 825 824 822 821 819 818 816 814
846 845 844 844 843 842 841 840 839 838 836 835 835 834 834 833 833 833 833 831 830 829 827 826 824 824 823 822 821 819 816 815 813
846 845 845 844 843 842 841 840 839 838 836 835 834 835 834 833 833 833 832 831 830 828 827 825 824 822 822 821 819 818 816 814 812
846 846 845 844 844 843 842 841 840 838 836 834 834 834 835 835 834 833 832 831 830 828 827 825 824 822 821 820 819 817 815 813 811
847 846 845 845 844 844 843 841 840 840 838 837 836 837 836 834 832 833 832 831 830 829 827 825 823 821 819 818 817 816 814 812 810
846 846 846 845 845 845 844 843 842 841 840 839 839 839 841 836 832 832 832 831 829 829 826 825 822 820 818 816 815 814 812 811 810
846 846 846 845 845 845 844 844 843 842 841 840 840 839 839 839 837 831 830 829 828 827 825 823 821 819 817 816 814 812 811 809 807
845 845 845 845 845 845 845 844 843 843 842 841 840 839 838 837 837 835 829 827 825 824 823 820 818 817 816 813 811 811 809 807 806
Wind_Speed
13 13 14 13 13 14 13 13 13 13 13 13 13 12 12 12 12 9 12 13 10 9 8 9 11 11 11 12 12 12 7 8 7
13 13 14 13 14 13 13 13 13 13 14 14 13 12 13 12 10 9 10 15 11 10 9 10 10 10 10 11 11 10 10 9 8
13 14 13 13 13 13 14 13 14 16 17 15 14 14 12 12 11 9 11 11 10 9 9 10 10 10 10 10 10 9 9 9 9
14 15 15 15 17 16 17 16 15 16 16 16 14 14 13 8 8 9 10 12 10 9 10 9 9 9 9 10 10 10 9 9 9
14 16 16 17 17 17 17 16 15 15 13 13 13 12 13 10 9 11 10 11 10 10 9 10 10 10 9 8 8 8 8 8 9
13 14 15 15 15 14 14 14 15 14 12 11 12 9 12 7 7 9 9 10 10 12 13 14 16 15 10 8 8 7 7 8 8
10 12 12 11 11 11 12 11 12 12 12 11 8 8 9 8 8 9 8 11 12 12 12 12 12 15 15 13 10 8 8 11 11
8 9 9 10 9 10 10 11 11 12 12 11 9 7 8 7 8 9 7 10 10 11 12 12 12 11 13 13 13 13 13 15 12
9 10 10 11 12 12 12 12 11 11 11 10 9 5 8 6 7 10 9 9 10 10 11 11 12 11 11 12 13 13 13 12 12
8 9 10 11 12 12 12 12 11 11 10 8 9 8 5 7 7 11 11 12 12 11 12 12 12 11 10 11 11 12 13 12 11
8 8 10 11 12 12 11 12 11 10 8 9 8 7 5 6 6 7 7 8 9 10 11 12 11 10 10 9 10 11 12 11 12
6 8 9 11 10 10 9 10 9 10 6 9 8 8 7 6 4 3 5 6 8 9 11 11 11 10 9 8 9 10 11 12 12
6 7 9 9 8 10 9 11 11 12 6 7 5 5 4 3 1 1 3 6 9 10 11 11 9 9 9 8 8 9 11 13 12
6 8 8 8 8 9 9 9 10 13 7 3 2 2 0 1 1 1 3 7 11 12 11 8 6 8 8 8 9 11 12 13 13
4 5 6 6 7 9 9 7 9 13 11 2 1 2 2 2 2 2 1 5 10 11 11 9 7 7 7 8 9 11 14 13 12
3 3 5 4 7 9 9 8 7 12 14 4 2 5 4 3 3 3 3 7 8 9 11 13 9 7 6 8 9 12 14 13 13
2 2 4 4 4 5 7 9 6 7 13 8 2 3 2 4 3 3 3 6 8 9 11 12 10 10 8 8 11 13 16 14 13
2 1 2 2 3 5 6 7 8 7 7 10 5 2 1 5 2 2 6 6 9 10 9 10 14 12 12 9 10 12 17 14 13
1 0 1 2 3 3 4 5 6 6 7 3 6 3 2 0 4 3 9 9 14 15 6 13 15 12 12 12 13 13 16 13 12
2 2 2 2 3 4 5 5 5 5 5 5 5 4 8 6 3 4 6 20 20 14 15 21 11 12 14 13 15 14 16 14 12
Wind_Direction
60 56 53 49 48 47 42 39 37 35 34 31 44 64 66 64 53 54 41 41 43 43 45 25 16 12 11 9 7 7 336 301 295
57 53 50 46 44 43 39 36 34 35 35 39 49 68 57 66 53 54 42 55 57 45 29 19 13 8 3 1 359 -0 7 358 329
57 53 50 46 43 40 35 33 42 42 39 42 60 63 57 56 50 61 37 54 40 35 26 19 14 11 6 3 2 359 358 -0 360
53 50 49 48 45 42 39 42 42 37 39 48 46 40 33 39 62 45 35 51 40 28 22 15 12 9 6 8 8 5 3 358 353
47 47 48 46 42 39 42 39 36 33 33 41 34 39 30 54 50 36 45 47 37 23 22 24 21 19 8 1 4 6 7 5 357
43 40 41 39 36 33 34 26 27 30 33 36 34 33 33 46 34 31 47 43 46 47 46 37 34 32 26 19 12 12 8 354 347
42 39 40 37 38 36 34 31 27 28 21 20 22 40 26 33 56 48 62 52 44 38 35 28 26 29 32 39 37 36 30 34 29
51 44 37 33 38 37 34 28 31 29 20 20 21 39 26 40 58 50 51 56 47 37 37 33 27 25 27 33 38 38 35 31 23
54 45 39 35 34 41 36 31 38 28 21 23 23 46 36 67 64 56 41 47 44 34 29 26 24 23 21 28 33 29 27 26 19
58 48 40 39 43 38 34 29 32 28 32 33 31 43 53 60 79 57 40 42 39 38 31 27 20 16 12 17 22 19 18 12 8
57 49 41 47 40 37 35 29 30 26 37 54 43 45 82 83 80 35 34 31 30 30 22 14 13 14 15 7 13 12 9 12 9
63 51 52 48 40 42 42 39 36 31 61 51 48 70 93 108 68 30 39 28 17 6 4 4 9 16 18 16 14 8 4 5 4
67 54 58 50 42 39 43 39 35 29 53 53 68 67 89 94 33 337 21 14 2 358 353 350 -0 12 13 20 17 10 1 356 354
69 60 63 51 48 44 43 49 35 22 28 59 82 26 32 160 56 46 5 356 357 356 358 358 8 2 11 12 7 4 360 354 348
86 70 67 59 48 45 43 53 41 23 13 3 230 266 27 89 64 64 334 338 348 358 1 356 345 340 353 356 1 360 356 352 349
118 89 74 61 43 35 33 45 39 27 22 44 16 236 244 289 292 275 278 321 352 354 352 356 348 341 337 338 346 350 354 352 349
110 90 71 64 50 37 34 34 36 28 26 23 17 2 286 271 290 247 348 359 340 344 347 347 340 341 333 329 334 343 350 349 347
146 117 65 45 27 23 25 26 29 20 32 40 44 26 299 325 318 213 346 325 1 346 312 335 332 314 323 317 327 334 345 346 342
180 128 6 16 3 358 3 7 15 13 18 353 15 350 291 194 326 275 334 327 334 334 322 321 312 300 299 303 317 323 337 342 339
256 278 311 327 326 333 339 347 353 355 349 359 348 338 319 259 220 278 299 311 319 327 321 315 302 292 291 287 303 314 330 339 335